Dewpoint
45 44 38 31 28 28 26 26 25 24 23 22 21 22 23 24 25 22 24 25 25 24
43 39 34 30 30 28 27 24 22 22 20 20 19 20 21 21 19 20 22 23 24 24
38 32 31 29 28 27 24 21 21 20 20 19 19 18 19 19 18 18 22 22 21 22
34 31 28 28 25 23 20 20 19 18 18 17 17 16 16 16 18 19 20 21 23 22
31 28 28 25 22 19 18 17 17 16 16 16 16 14 13 15 17 19 19 20 24 23
27 27 26 21 19 18 17 16 16 17 17 15 16 14 13 14 16 18 19 20 19 19
26 24 22 19 18 17 17 17 18 17 16 15 14 14 14 17 19 20 21 21 21 19
24 23 19 19 18 18 19 17 17 16 15 15 14 11 20 22 22 21 20 20 18 19
23 20 21 19 20 20 18 17 16 15 14 15 11 21 24 25 22 20 19 18 17 19
20 20 21 20 19 19 17 16 15 13 13 12 13 20 24 26 22 20 20 22 22 21
20 20 20 19 18 16 15 14 13 12 12 14 14 20 23 25 21 19 19 22 20 19
19 18 18 17 15 14 13 12 11 12 13 12 11 17 21 24 20 18 18 18 19 19
17 18 17 16 13 13 13 12 13 13 11 11 11 15 20 23 19 18 18 18 18 23
16 15 14 13 12 11 12 14 10 10 9 10 12 14 19 23 21 20 20 19 20 21
Lifted_Index
-0 -1 -2 -2 -1 -0 2 5 8 9 9 9 10 10 10 10 11 13 15 16 17 18
-0 -1 -2 -2 -1 1 3 6 8 9 9 10 10 10 10 10 11 13 16 17 18 18
-1 -1 -2 -1 0 2 4 7 8 9 9 10 10 10 11 11 12 14 16 18 18 19
-1 -1 -1 -0 1 3 5 8 9 9 9 9 10 10 11 12 13 15 17 18 19 19
-1 -1 -0 1 2 4 7 9 9 9 9 9 10 10 11 12 14 16 17 18 19 18
-1 -0 0 2 4 6 8 9 9 10 9 9 10 11 12 14 16 17 18 19 19 19
-0 0 2 3 6 8 9 9 9 9 9 10 10 12 14 16 18 18 19 19 19 20
1 2 4 6 7 9 9 9 10 10 10 10 11 13 16 18 18 18 19 19 20 20
3 4 6 8 8 9 9 10 10 10 10 11 13 16 18 18 19 19 19 19 20 21
5 6 7 8 9 9 10 10 10 10 11 13 16 17 18 19 19 19 20 20 20 21
6 7 8 9 10 10 10 10 11 12 14 16 17 18 19 20 20 20 20 21 21 21
7 8 9 9 10 10 11 11 13 14 16 17 18 19 20 20 20 21 21 21 21 21
9 9 10 10 10 11 12 13 15 16 17 18 19 20 20 21 21 21 21 21 21 21
10 10 10 10 11 12 14 15 16 16 17 18 19 20 21 22 22 22 22 22 21 21